Location: Fort Worth, Tx
(32.7431°N, 97.3695°W)
Time: 09:59:23
(UTC-04:00)

Explorer 11/Cluster Stage 4 - Pass Details

Date: 25 February 2024
Orbit: 465 x 1219 km, 28.8° (Epoch: 24 April)

Event Time Altitude Azimuth Distance (km) Brightness Sun altitude
Exits shadow 06:36:28 28° 247° (WSW) 1,709 7.8 -18.8°
Maximum altitude 06:39:11 42° 199° (SSW) 1,272 7.4 -18.2°
Drops below altitude 10° 06:44:27 10° 130° (SE) 2,329 9.7 -17.1°
Sets 06:46:48 0° 122° (ESE) 3,135 10.7 -16.6°
